Home > Weather > Hay River > Past weeks

Flag for Canada Weather for the Past 2 Weeks in Hay River, Northwest Territories, Canada

Now
9 °F

Light snow. Overcast.


Feels Like: 0 °F
Forecast: 0 / 10 °F
Wind: 5 mph from North

Location: Hay River

Current Time: Feb 14, 2016 at 3:18:11 AM

Latest Report: Feb 14, 2016 at 3:00 AM


Visibility: 15 mi

Pressure: 29.74 "Hg

Humidity: 78%

Dew point: 3 °F

Location of Hay RiverLocation

Historic Weather in Hay River — Graph

°F

Hay River Temperature Yesterday

Maximum temperature yesterday: 18 °F (at 6:00 AM)
Minimum temperature yesterday: 9 °F (at 10:00 PM)
Average temperature yesterday: 14 °F

High & Low Weather Summary for the Past Weeks

 TemperatureHumidityPressure
High18 °F (Feb 13, 6:00 AM)93% (Feb 13, 8:00 AM)30.71 "Hg (Feb 13, 8:00 AM)
Low-20 °F (Feb 10, 8:00 PM)63% (Feb 10, 3:00 PM)29.46 "Hg (Jan 30, 2:00 AM)
Average-1 °F78%30.15 "Hg
* Reported Jan 30 2:00 AM — Feb 14 2:00 AM, Hay River, Weather by CustomWeather, © 2016

Note: Actual official high and low records may vary slightly from our data, if they occured in-between our weather recording intervals... More about our weather records

Advertising

Hay River Weather History for the Previous 24 Hours

 ConditionsComfort  
Time TempWeatherWind HumidityBarometerVisibility
2:00 AM
Sun, Feb 14
9 °FLight snow. Overcast.2 mph85%29.72 "Hg15 mi
1:00 AM9 °FLight snow. Partly cloudy.3 mph85%29.72 "Hg15 mi
12:00 AM9 °FLight snow. Mostly cloudy.3 mph85%29.71 "Hg15 mi
11:00 PM
Sat, Feb 13
9 °FLight snow. Overcast.3 mph85%29.71 "Hg15 mi
10:00 PM9 °FLight snow. Mostly cloudy.3 mph85%29.70 "Hg15 mi
9:00 PM10 °FLight snow. Mostly cloudy.3 mph85%29.69 "Hg15 mi
8:00 PM10 °FLight snow. Mostly cloudy.10 mph85%29.70 "Hg15 mi
7:00 PM12 °FLight snow. Mostly cloudy.8 mph85%29.70 "Hg15 mi
6:00 PM12 °FLight snow. Mostly cloudy.10 mph85%29.70 "Hg15 mi
5:00 PM12 °FOvercast.12 mph92%29.70 "Hg15 mi
4:00 PM14 °FLow clouds.10 mph85%29.69 "Hg15 mi
3:00 PM14 °FLight snow. Overcast.13 mph92%29.69 "Hg2 mi
2:00 PM14 °FLight snow. Ice fog.12 mph92%29.67 "Hg1 mi
1:00 PM16 °FMostly cloudy.12 mph93%29.66 "Hg15 mi
12:00 PM16 °FLow clouds.10 mph93%29.65 "Hg15 mi
11:00 AM18 °FLight freezing rain. More clouds than sun.9 mph93%29.65 "Hg1 mi
10:00 AM18 °FLight freezing rain. Mostly cloudy.8 mph93%29.65 "Hg1 mi
9:00 AM18 °FMore clouds than sun.7 mph93%29.65 "Hg15 mi
8:00 AM18 °FOvercast.3 mph93%29.65 "Hg15 mi
7:00 AM18 °FOvercast.5 mph86%29.65 "Hg15 mi
6:00 AM18 °FOvercast.3 mph86%29.66 "Hg15 mi
5:00 AM16 °FPassing clouds.5 mph86%29.67 "Hg15 mi
4:00 AM16 °FPassing clouds.7 mph86%29.69 "Hg15 mi
3:00 AM14 °FPartly cloudy.7 mph85%29.71 "Hg15 mi
Weather by CustomWeather, © 2016

See weather overviewHow to use our weather pages